Location: Montreal
(45.5087°N, 73.5540°W)
Time: 21:07:13
(UTC-04:00)

Envisat - Visible Passes

Search period start: 21 October 2017 00:00
Search period end: 31 October 2017 00:00
Orbit: 764 x 766 km, 98.2° (Epoch: 21 October)

Date Brightness Start Highest point End Pass type
(mag) Time Alt. Az. Time Alt. Az. Time Alt. Az.
21 Oct 4.2 19:21:35 21° ENE 19:21:46 21° ENE 19:25:31 10° NNE visible
21 Oct 4.0 21:01:48 42° NW 21:01:48 42° NW 21:05:25 10° NNW visible
22 Oct 4.9 18:44:36 10° ENE 18:45:35 11° NE 18:46:42 10° NE visible
22 Oct 3.4 20:24:49 51° NNE 20:24:49 51° NNE 20:28:43 10° N visible
22 Oct 5.8 22:05:02 14° WNW 22:05:02 14° WNW 22:06:16 10° NW visible
23 Oct 3.8 19:47:50 32° NE 19:47:50 32° NE 19:51:40 10° N visible
23 Oct 5.0 21:28:03 25° NW 21:28:03 25° NW 21:30:43 10° NNW visible
24 Oct 4.5 19:10:51 17° ENE 19:10:51 17° ENE 19:14:03 10° NNE visible
24 Oct 4.0 20:51:04 40° NNW 20:51:04 40° NNW 20:54:21 10° NNW visible
25 Oct 3.7 20:14:04 40° NNE 20:14:04 40° NNE 20:17:33 10° N visible
25 Oct 5.7 21:54:17 15° WNW 21:54:17 15° WNW 21:55:39 10° NW visible
26 Oct 4.1 19:37:05 26° NE 19:37:05 26° NE 19:40:22 10° N visible
26 Oct 4.9 21:17:18 26° NW 21:17:18 26° NW 21:19:46 10° NNW visible
27 Oct 4.7 19:00:05 14° NE 19:00:05 14° NE 19:02:28 10° NNE visible
27 Oct 4.1 20:40:18 36° NNW 20:40:18 36° NNW 20:43:15 10° NNW visible
28 Oct 4.0 20:03:18 32° NNE 20:03:18 32° NNE 20:06:21 10° N visible
28 Oct 5.6 21:43:31 16° NW 21:43:31 16° NW 21:44:53 10° NW visible
29 Oct 4.4 19:26:18 21° NE 19:26:18 21° NE 19:29:01 10° NNE visible
29 Oct 4.9 21:06:31 25° NW 21:06:31 25° NW 21:08:46 10° NNW visible
30 Oct 4.9 18:49:19 12° NE 18:49:19 12° NE 18:50:37 10° NE visible
30 Oct 4.3 20:29:31 31° N 20:29:31 31° N 20:32:08 10° N visible
